Location: Windsor
(43.2292°N, 89.3015°W)
Time: 00:45:09
(UTC+00:00)

First-Move - Visible Passes

Search period start: 30 June 2022 00:00
Search period end: 10 July 2022 00:00
Orbit: 572 x 660 km, 97.6° (Epoch: 29 June)

Date Brightness Start Highest point End Pass type
(mag) Time Alt. Az. Time Alt. Az. Time Alt. Az.
30 Jun ? 08:59:07 10° NE 09:02:09 18° E 09:05:12 10° SE visible
01 Jul ? 09:14:30 10° NE 09:18:14 26° E 09:22:00 10° SSE visible
02 Jul ? 09:30:07 10° NNE 09:34:17 37° E 09:38:28 10° SSE visible
03 Jul ? 09:45:52 10° NNE 09:50:17 55° E 09:54:44 10° S visible
05 Jul ? 08:43:50 10° ENE 08:45:43 12° E 08:47:35 10° ESE visible
06 Jul ? 08:58:43 10° NE 09:01:49 18° E 09:04:56 10° SE visible
07 Jul ? 09:14:04 10° NE 09:17:53 26° E 09:21:41 10° SSE visible
08 Jul ? 09:29:41 10° NNE 09:33:54 38° E 09:38:08 10° SSE visible
09 Jul ? 09:45:26 10° NNE 09:49:54 56° E 09:54:21 10° S visible
